Location: Namasale
(1.5000°N, 32.6167°E)
Time: 00:34:03
(UTC+00:00)

Vanguard 3 - Pass Details

Date: 07 December 2021
Orbit: 508 x 3260 km, 33.3° (Epoch: 27 January)

Event Time Altitude Azimuth Distance (km) Brightness Sun altitude
Exits shadow 02:57:41 - 313° (NW) 6,430 11.1 -10.6°
Reaches altitude 10° 02:59:47 10° 318° (NW) 6,189 11.1 -10.1°
Maximum altitude 03:11:18 18° 354° (N) 5,239 11.0 -7.4°
Drops below altitude 10° 03:21:17 10° 32° (NNE) 5,298 11.4 -5.1°
Sets 03:27:05 0° 50° (NE) 5,813 11.9 -3.8°
